When you browse on this site, cookies collect data to enhance your experience and personalize the content and advertising you see.
Visit our Privacy Policy to learn more. By continuing to use the site, you agree to this use of cookies and data.
EN

Hourly Weather Aligarh

Today, 13 August, Thursday

Time Temperature Precipitation Wind Pressure Humidity
00:00 +30°C° 0.7 mm 1 mps 732 mmHg 82%
01:00 +30°C° 0.7 mm 1 mps 732 mmHg 83%
02:00 +30°C° 0.7 mm 1 mps 731 mmHg 85%
03:00 +30°C° 0.7 mm 1 mps 731 mmHg 86%
04:00 +30°C° 0.7 mm 1 mps 731 mmHg 86%
05:00 +30°C° 0 mm 1 mps 731 mmHg 92%
06:00 +31°C° 0.9 mm 2 mps 731 mmHg 86%
07:00 +32°C° 0.9 mm 2 mps 731 mmHg 80%
08:00 +34°C° 0.9 mm 2 mps 732 mmHg 74%
09:00 +34°C° 0.9 mm 3 mps 731 mmHg 72%
10:00 +35°C° 0.9 mm 3 mps 731 mmHg 70%
11:00 +34°C° 0 mm 2 mps 732 mmHg 73%
12:00 +33°C° 0.6 mm 3 mps 732 mmHg 74%
13:00 +33°C° 0.6 mm 4 mps 731 mmHg 76%
14:00 +33°C° 0.6 mm 5 mps 731 mmHg 77%
15:00 +32°C° 0.3 mm 5 mps 730 mmHg 79%
16:00 +32°C° 0.3 mm 5 mps 730 mmHg 80%
17:00 +30°C° 0 mm 4 mps 730 mmHg 82%
18:00 +30°C° 0 mm 4 mps 730 mmHg 83%
19:00 +29°C° 0 mm 4 mps 730 mmHg 85%
20:00 +29°C° 0 mm 4 mps 731 mmHg 87%
21:00 +29°C° 0 mm 3 mps 731 mmHg 88%
22:00 +29°C° 0 mm 3 mps 731 mmHg 89%
23:00 +28°C° 0 mm 2 mps 731 mmHg 90%

Tomorrow, 14 August, Friday

Time Temperature Precipitation Wind Pressure Humidity
00:00 +28°C° 0 mm 3 mps 731 mmHg 90%
01:00 +28°C° 0 mm 3 mps 731 mmHg 90%
02:00 +28°C° 0 mm 3 mps 730 mmHg 89%
03:00 +28°C° 0 mm 3 mps 731 mmHg 90%
04:00 +28°C° 0 mm 3 mps 731 mmHg 91%
05:00 +28°C° 0 mm 3 mps 731 mmHg 92%
06:00 +29°C° 0.3 mm 3 mps 731 mmHg 89%
07:00 +30°C° 0.3 mm 3 mps 731 mmHg 86%
08:00 +30°C° 0.3 mm 3 mps 732 mmHg 82%
09:00 +33°C° 1.4 mm 3 mps 732 mmHg 78%
10:00 +34°C° 1.4 mm 3 mps 731 mmHg 73%
11:00 +35°C° 1.4 mm 2 mps 731 mmHg 68%
12:00 +35°C° 0.6 mm 2 mps 730 mmHg 68%
13:00 +35°C° 0.6 mm 2 mps 730 mmHg 67%
14:00 +35°C° 0.6 mm 2 mps 729 mmHg 67%
15:00 +34°C° 0 mm 1 mps 729 mmHg 65%
16:00 +35°C° 0 mm 1 mps 728 mmHg 64%
17:00 +33°C° 0 mm 0 mps 728 mmHg 63%
18:00 +32°C° 0 mm 0 mps 728 mmHg 66%
19:00 +31°C° 0 mm 0 mps 728 mmHg 68%
20:00 +30°C° 0 mm 0 mps 729 mmHg 71%
21:00 +32°C° 0.1 mm 1 mps 729 mmHg 72%
22:00 +32°C° 0.1 mm 1 mps 729 mmHg 74%
23:00 +32°C° 0.1 mm 1 mps 729 mmHg 75%

Day after tomorrow, 15 August, Saturday

Time Temperature Precipitation Wind Pressure Humidity
00:00 +31°C° 0.3 mm 1 mps 729 mmHg 76%
01:00 +31°C° 0.3 mm 1 mps 729 mmHg 78%
02:00 +31°C° 0.3 mm 1 mps 728 mmHg 79%
03:00 +30°C° 1.5 mm 2 mps 729 mmHg 81%
04:00 +30°C° 1.5 mm 3 mps 729 mmHg 82%
05:00 +30°C° 1.5 mm 3 mps 729 mmHg 84%
06:00 +31°C° 1.2 mm 3 mps 729 mmHg 81%
07:00 +33°C° 1.2 mm 3 mps 729 mmHg 78%
08:00 +34°C° 1.2 mm 3 mps 730 mmHg 74%
09:00 +35°C° 1.4 mm 3 mps 730 mmHg 70%
10:00 +36°C° 1.4 mm 3 mps 730 mmHg 65%
11:00 +37°C° 1.4 mm 2 mps 730 mmHg 61%
12:00 +37°C° 0 mm 2 mps 729 mmHg 60%
13:00 +37°C° 0 mm 2 mps 729 mmHg 59%
14:00 +36°C° 0 mm 1 mps 729 mmHg 58%
15:00 +36°C° 0.1 mm 1 mps 728 mmHg 60%
16:00 +36°C° 0.1 mm 1 mps 728 mmHg 63%
17:00 +36°C° 0.1 mm 1 mps 728 mmHg 65%
18:00 +35°C° 0.2 mm 1 mps 728 mmHg 68%
19:00 +35°C° 0.2 mm 2 mps 729 mmHg 71%
20:00 +34°C° 0.2 mm 2 mps 729 mmHg 74%
21:00 +32°C° 1.6 mm 2 mps 730 mmHg 77%
22:00 +33°C° 1.6 mm 3 mps 730 mmHg 79%
23:00 +32°C° 1.6 mm 4 mps 730 mmHg 81%

16 August, Sunday

Time Temperature Precipitation Wind Pressure Humidity
00:00 +31°C° 3 mm 3 mps 730 mmHg 82%
01:00 +31°C° 3 mm 3 mps 730 mmHg 82%
02:00 +31°C° 3 mm 3 mps 730 mmHg 83%
03:00 +30°C° 3.9 mm 3 mps 730 mmHg 84%
04:00 +30°C° 3.9 mm 4 mps 730 mmHg 86%
05:00 +30°C° 3.9 mm 4 mps 730 mmHg 87%
06:00 +30°C° 0.9 mm 4 mps 730 mmHg 87%
07:00 +30°C° 0.9 mm 4 mps 731 mmHg 86%
08:00 +30°C° 0.9 mm 4 mps 731 mmHg 86%
09:00 +32°C° 1.5 mm 4 mps 731 mmHg 81%
10:00 +34°C° 1.5 mm 4 mps 731 mmHg 75%
11:00 +35°C° 1.5 mm 3 mps 731 mmHg 70%
12:00 +35°C° 1.2 mm 3 mps 731 mmHg 71%
13:00 +34°C° 1.2 mm 2 mps 731 mmHg 73%
14:00 +34°C° 1.2 mm 2 mps 730 mmHg 74%
15:00 +34°C° 0.1 mm 2 mps 730 mmHg 76%
16:00 +32°C° 0.1 mm 2 mps 729 mmHg 77%
17:00 +32°C° 0.1 mm 1 mps 729 mmHg 79%
18:00 +32°C° 0 mm 2 mps 729 mmHg 80%
19:00 +31°C° 0 mm 2 mps 730 mmHg 81%
20:00 +31°C° 0 mm 2 mps 730 mmHg 82%
21:00 +31°C° 0.1 mm 2 mps 731 mmHg 82%
22:00 +31°C° 0.1 mm 2 mps 731 mmHg 83%
23:00 +30°C° 0.1 mm 2 mps 731 mmHg 83%

17 August, Monday

Time Temperature Precipitation Wind Pressure Humidity
00:00 +30°C° 0.3 mm 2 mps 731 mmHg 84%
01:00 +30°C° 0.3 mm 2 mps 731 mmHg 85%
02:00 +30°C° 0.3 mm 2 mps 730 mmHg 85%
03:00 +30°C° 1.9 mm 2 mps 731 mmHg 85%
04:00 +30°C° 1.9 mm 3 mps 731 mmHg 85%
05:00 +30°C° 1.9 mm 3 mps 731 mmHg 84%
06:00 +31°C° 0.4 mm 3 mps 731 mmHg 82%
07:00 +32°C° 0.4 mm 4 mps 731 mmHg 79%
08:00 +33°C° 0.4 mm 4 mps 732 mmHg 77%
09:00 +34°C° 0 mm 4 mps 732 mmHg 72%
10:00 +35°C° 0 mm 4 mps 732 mmHg 67%
11:00 +36°C° 0 mm 4 mps 732 mmHg 63%
12:00 +37°C° 0.1 mm 3 mps 731 mmHg 61%
13:00 +37°C° 0.1 mm 3 mps 730 mmHg 59%
14:00 +38°C° 0.1 mm 3 mps 730 mmHg 57%
15:00 +38°C° 0 mm 2 mps 729 mmHg 58%
16:00 +37°C° 0 mm 2 mps 729 mmHg 59%
17:00 +36°C° 0 mm 1 mps 729 mmHg 60%
18:00 +35°C° 0 mm 1 mps 729 mmHg 64%
19:00 +35°C° 0 mm 2 mps 729 mmHg 67%
20:00 +34°C° 0 mm 2 mps 730 mmHg 71%
21:00 +34°C° 0 mm 2 mps 730 mmHg 73%
22:00 +32°C° 0 mm 2 mps 730 mmHg 75%
23:00 +32°C° 0 mm 2 mps 731 mmHg 77%

18 August, Tuesday

Time Temperature Precipitation Wind Pressure Humidity
00:00 +33°C° 0.6 mm 3 mps 731 mmHg 78%
01:00 +31°C° 0.6 mm 3 mps 730 mmHg 79%
02:00 +31°C° 0.6 mm 3 mps 730 mmHg 80%
03:00 +31°C° 0.9 mm 3 mps 730 mmHg 80%
04:00 +31°C° 0.9 mm 2 mps 730 mmHg 81%
05:00 +31°C° 0.9 mm 2 mps 730 mmHg 81%
06:00 +32°C° 0.2 mm 2 mps 731 mmHg 78%
07:00 +34°C° 0.2 mm 3 mps 731 mmHg 75%
08:00 +34°C° 0.2 mm 3 mps 731 mmHg 72%
09:00 +36°C° 0 mm 3 mps 731 mmHg 66%
10:00 +37°C° 0 mm 3 mps 731 mmHg 61%
11:00 +38°C° 0 mm 3 mps 731 mmHg 55%
12:00 +38°C° 0 mm 2 mps 731 mmHg 54%
13:00 +38°C° 0 mm 2 mps 730 mmHg 52%
14:00 +39°C° 0 mm 1 mps 729 mmHg 51%
15:00 +39°C° 0 mm 1 mps 729 mmHg 53%
16:00 +37°C° 0 mm 1 mps 729 mmHg 55%
17:00 +37°C° 0 mm 1 mps 728 mmHg 57%
18:00 +36°C° 0 mm 1 mps 729 mmHg 60%
19:00 +36°C° 0 mm 2 mps 729 mmHg 63%
20:00 +35°C° 0 mm 2 mps 730 mmHg 66%
21:00 +34°C° 0 mm 2 mps 730 mmHg 69%
22:00 +34°C° 0 mm 2 mps 730 mmHg 73%
23:00 +32°C° 0 mm 2 mps 731 mmHg 76%
Show more